Hourly Weather Roundup
Issued by NWS

Home | Current Version | Previous Version | Text Only | Print | Product List | Glossary On
Versions: 1 2 3 4 5 6 7 8 9 10 11 12 13 14 15 16 17 18 19 20 21 22 23 24 25 26 27 28 29 30 31 32 33 34 35 36 37 38 39 40 41 42 43 44 45 46 47 48 49 50
152
NZUS43 KILX 281810
HWRCRS

NWR Hourly Weather Roundup
National Weather Service Lincoln IL
1200 PM CST TUE FEB 28 2017


CITY           SKY/WX    TMP DP  RH WIND       PRES   REMARKS
Champaign      CLOUDY    57  54  89 S17       29.82F FOG
Lawrenceville  LGT RAIN  58  58 100 S12       29.89F FOG
Peoria         CLOUDY    61  57  87 S12       29.72F
Springfield    CLOUDY    67  58  72 S17G25    29.74F
$$


CITY           SKY/WX    TMP DP  RH WIND       PRES   REMARKS
Bloomington    CLOUDY    58  56  93 S20       29.75F
Decatur        CLOUDY    59  55  87 S14G23    29.80F
Effingham      CLOUDY    60  60 100 S10       29.87F FOG
Flora          CLOUDY    62  61  96 S10       29.88F FOG
Galesburg      CLOUDY    62  56  81 S15G21    29.67F
Jacksonville   CLOUDY    67  58  71 S17G26    29.72F
Lacon          CLOUDY    60  56  88 S14       29.72F
La Salle       CLOUDY    56  53  89 S14G20    29.73F
Lincoln        CLOUDY    63  59  86 S16G24    29.74F
Litchfield     CLOUDY    61  58  90 S13       29.79F

CITY           SKY/WX    TMP DP  RH WIND       PRES   REMARKS
Macomb         CLOUDY    65  57  76 SW14      29.70F
Mattoon        CLOUDY    56  56 100 S10G21    29.83F FOG
Moline         PTSUNNY   64  56  75 S14       29.65F
Olney          CLOUDY    57  57 100 S8        29.88F FOG
Paris          CLOUDY    56  56  99 S13       29.87F
Pontiac        CLOUDY    56  56  97 S14       29.77F FOG
Quincy         CLOUDY    70  59  68 SW22G29   29.67F
Rantoul        CLOUDY    57  56  99 S15       29.82F FOG
Robinson       CLOUDY    57  56  99 S10       29.89F FOG
Taylorville    CLOUDY    62  58  86 S16       29.80F
Terre Haute    CLOUDY    56  54  93 S10       29.88F FOG
$$


CITY           SKY/WX    TMP DP  RH WIND       PRES   REMARKS
Burlington     MOSUNNY   66  58  75 S18G26    29.63F
Chicago        CLOUDY    56  51  84 S18       29.73F
Des Moines     CLOUDY    64  43  46 W10       29.59F
Evansville     LGT RAIN  63  59  87 S13       29.92F
Indianapolis   DRIZZLE   53  52  96 S10       29.90F FOG
Kansas City    CLOUDY    70  52  52 SW21G31   29.63F
Milwaukee      CLOUDY    50  47  89 S8        29.69F FOG
St Louis       CLOUDY    72  58  61 S17G25    29.79F
$$





USA.gov is the U.S. government's official web portal to all federal, state and local government web resources and services.